This is the latest recevied weather packets stored in our database for station/object KK7RJD. If no packets are shown the sender has not sent any weather packets the latest 10 day(s).
| Time | Temp. | Humidity | Pressure | Rain* | Wind** | Luminosity | Snow |
|---|---|---|---|---|---|---|---|
| 1777943159 | 10.56° C | 42% | 1013 hPa | 0 mm | - | 78 W/m² | - |
| 1777942552 | 10.56° C | 41% | 1013 hPa | 0 mm | - | 141 W/m² | - |
| 1777941340 | 10.56° C | 42% | 1012.9 hPa | 0 mm | - | 113 W/m² | - |
| 1777940437 | 10.56° C | 41% | 1012.8 hPa | 0 mm | - | 112 W/m² | - |
| 1777940134 | 10.56° C | 41% | 1012.8 hPa | 0 mm | - | 109 W/m² | - |
| 1777939529 | 10.56° C | 40% | 1012.8 hPa | 0 mm | - | 86 W/m² | - |
| 1777938923 | 10.56° C | 40% | 1012.7 hPa | 0 mm | - | 104 W/m² | - |
| 1777934376 | 12.22° C | 41% | 1012.1 hPa | 0 mm | - | 455 W/m² | - |
| 1777933767 | 12.78° C | 40% | 1012 hPa | 0 mm | - | 495 W/m² | - |
| 1777932253 | 12.78° C | 39% | 1011.9 hPa | 0 mm | - | 633 W/m² | - |
| 1777931647 | 12.78° C | 42% | 1011.9 hPa | 0 mm | - | 660 W/m² | - |
| 1777930130 | 13.33° C | 42% | 1011.8 hPa | 0 mm | - | 793 W/m² | - |
| 1777929826 | 12.78° C | 41% | 1012 hPa | 0 mm | - | 296 W/m² | - |
| 1777929524 | 13.89° C | 39% | 1011.9 hPa | 0 mm | - | 385 W/m² | - |
| 1777929219 | 13.33° C | 41% | 1012.1 hPa | 0 mm | - | 409 W/m² | - |
| 1777928614 | 13.89° C | 39% | 1012 hPa | 0 mm | - | 725 W/m² | - |
| 1777927104 | 13.33° C | 42% | 1012 hPa | 0 mm | - | 377 W/m² | - |
| 1777926801 | 13.89° C | 40% | 1012 hPa | 0 mm | - | 989 W/m² | - |
| 1777926194 | 13.33° C | 42% | 1012.3 hPa | 0 mm | - | 957 W/m² | - |
| 1777925588 | 13.89° C | 40% | 1012.1 hPa | 0 mm | - | 964 W/m² | - |
| 1777925285 | 13.33° C | 41% | 1012.3 hPa | 0 mm | - | 986 W/m² | - |
| 1777924981 | 13.33° C | 44% | 1012.3 hPa | 0 mm | - | 920 W/m² | - |
| 1777923767 | 12.22° C | 42% | 1012.5 hPa | 0 mm | - | 784 W/m² | - |
| 1777923463 | 12.78° C | 42% | 1012.7 hPa | 0 mm | - | 848 W/m² | - |
| 1777923161 | 12.22° C | 42% | 1012.5 hPa | 0 mm | - | 840 W/m² | - |
* Rain latest hour (hover to see other rain measurements)
** Current wind speed in m/s (hover to see current wind gust speed)